Weather observations for the past three days for
Huslia, Huslia Airport
Imperial (Metric)
Date Time (akdt) Wind (mph) Vis. (mi.) Weather Sky Cond. Temperature (ºF) Relative Humidity Wind Chill (°F) Heat Index (°F) Pressure Precipitation (in)
Air Dwpt 6 hour altimeter (in) sea level (mb) 1 hr 3 hr 6 hr
Max. Min.
15 08:56 S 10 10.00 Partly Cloudy SCT055 52 42.1 69% 29.67 1004.9
15 07:56 S 7 10.00 Mostly Cloudy BKN090 48.9 43 80% 46 29.66 1004.6
15 06:56 S 6 10.00 Overcast SCT070 OVC110 48.9 42.1 77% 47 29.64 1004.0
15 05:56 S 7 10.00 Overcast OVC065 48 42.1 80% 45 29.63 1003.6
15 04:56 S 5 10.00 Mostly Cloudy FEW080 BKN110 48 43 83% 47 29.62 1003.3
15 03:56 S 3 10.00 Overcast OVC050 48 45 55.9 48 89% 29.61 1002.8
15 02:56 S 5 10.00 Overcast OVC049 48.9 44.1 83% 48 29.6 1002.5
15 01:56 S 3 10.00 Overcast OVC047 50 44.1 80% 29.59 1002.1
15 00:56 S 5 10.00 A Few Clouds FEW050 48.9 45 86% 48 29.57 1001.5
14 23:56 Calm 10.00 Overcast OVC048 53.1 46.9 80% 29.55 1000.8
14 22:56 Calm 10.00 Overcast OVC048 55 44.1 67% 29.53 1000.3
14 21:56 Calm 10.00 Overcast BKN050 OVC120 55.9 44.1 61 55.9 65% 29.52 999.8
14 20:56 Calm 10.00 Mostly Cloudy BKN050 57 43 60% 29.51 999.6
14 19:56 SW 7 10.00 Overcast BKN050 OVC120 57.9 42.1 56% 29.51 999.5
14 18:56 Vrbl 7 10.00 Overcast OVC100 59 43 56% 29.5 999.2
14 17:56 SW 8 10.00 Mostly Cloudy BKN120 59 44.1 58% 29.49 999.0
14 16:56 SW 10 G 18 10.00 Fair CLR 61 43 52% 29.48 998.5
14 15:56 S 9 10.00 A Few Clouds FEW039 60.1 44.1 61 53.1 56% 29.48 998.5 0.01
14 14:56 S 8 10.00 Partly Cloudy SCT039 60.1 45 58% 29.47 998.2
14 13:56 SW 12 10.00 Mostly Cloudy BKN032 BKN041 57.9 46 65% 29.46 997.7
14 12:56 SW 7 10.00 Overcast FEW021 OVC035 57.9 48 70% 29.45 997.4 0.01
14 11:56 SW 5 7.00 Light Rain SCT017 OVC029 54 50 87% 29.44 997.2
14 10:56 S 8 10.00 Overcast FEW011 BKN019 OVC028 55 50 83% 29.43 996.7 0.01
14 09:56 S 5 10.00 Mostly Cloudy FEW009 BKN019 53.1 50 54 51.1 89% 29.41 996.1 0.01
14 08:56 S 10 10.00 Partly Cloudy SCT009 52 48.9 89% 29.39 995.5
14 07:56 S 8 10.00 Overcast FEW032 SCT048 OVC080 52 50 93% 29.38 995.0
14 06:56 S 8 8.00 Overcast OVC016 52 51.1 97% 29.35 994.2 0.01
14 05:56 SE 3 2.00 Light Rain Fog/Mist FEW008 OVC013 53.1 53.1 100% 29.35 994.0
14 04:56 Calm 5.00 Fog/Mist OVC019 54 53.1 97% 29.34 993.9 0.01
14 03:56 NE 3 5.00 Light Rain Fog/Mist FEW006 OVC023 54 53.1 55 53.1 97% 29.35 993.8 0.08 0.28
14 02:56 N 3 5.00 Light Rain Fog/Mist BKN006 OVC010 53.1 53.1 100% 29.36 994.4 0.01
14 01:56 Calm 6.00 Light Rain Fog/Mist SCT021 OVC090 53.1 53.1 100% 29.37 994.9 0.02
14 00:56 Calm 5.00 Light Rain Fog/Mist BKN035 OVC042 53.1 53.1 100% 29.39 995.5 0.04 0.17
13 23:56 N 3 5.00 Light Rain Fog/Mist BKN041 OVC060 54 53.1 97% 29.41 996.0 0.03
13 22:56 Calm 5.00 Rain Fog/Mist FEW018 BKN033 OVC060 55 54 96% 29.43 996.9 0.1
13 21:56 Calm 5.00 Light Rain Fog/Mist BKN050 OVC060 55 54 62.1 55 96% 29.45 997.4 0.04 0.06
13 20:56 Calm 10.00 Light Rain OVC070 57 52 83% 29.46 997.9 0.01
13 19:56 SE 3 10.00 Light Rain OVC075 57 52 83% 29.49 998.9 0.01
13 18:56 SE 6 10.00 Overcast SCT036 BKN045 OVC070 59 51.1 75% 29.5 999.3
13 17:56 SE 7 10.00 Overcast BKN060 OVC070 60.1 52 75% 29.52 999.9
13 16:56 S 9 G 16 10.00 Overcast SCT042 BKN060 OVC085 60.1 48.9 67% 29.54 1000.5
13 15:56 Vrbl 5 10.00 Mostly Cloudy BKN055 BKN070 61 48.9 61 55.9 65% 29.55 1000.8
13 14:56 SE 7 10.00 Overcast SCT035 BKN043 OVC050 61 48 63% 29.57 1001.4
13 13:56 Vrbl 7 10.00 Overcast BKN032 BKN055 OVC070 60.1 46.9 62% 29.57 1001.7
13 12:56 S 7 10.00 Mostly Cloudy BKN034 BKN060 60.1 48 65% 29.59 1002.1
13 11:56 S 8 10.00 Overcast SCT028 OVC037 60.1 48 65% 29.59 1002.2
13 10:56 S 9 10.00 Overcast OVC024 57.9 48 70% 29.59 1002.3
13 09:56 S 6 10.00 Overcast BKN026 OVC070 55.9 48.9 57 51.1 77% 29.6 1002.5
13 08:56 S 7 10.00 Overcast OVC040 55 48.9 80% 29.6 1002.5
13 07:56 SE 6 10.00 Overcast BKN033 OVC042 54 48.9 83% 29.6 1002.6
13 06:56 SE 6 10.00 Overcast OVC035 53.1 48.9 86% 29.6 1002.5
13 05:56 SE 6 10.00 Overcast OVC040 52 48.9 89% 29.59 1002.3
13 04:56 SE 5 10.00 Overcast SCT031 OVC044 52 48.9 89% 29.59 1002.3
13 03:56 Vrbl 3 10.00 Overcast FEW065 OVC085 52 50 57.9 52 93% 29.59 1002.1 0.07
13 02:56 E 5 10.00 Overcast FEW029 BKN041 OVC055 52 50 93% 29.59 1002.1
13 01:56 E 3 10.00 Light Rain FEW037 BKN055 OVC070 52 50 93% 29.59 1002.4 0.01
13 00:56 SE 6 7.00 Light Rain OVC065 53.1 50 89% 29.59 1002.3 0.03 0.06
12 23:56 SE 5 10.00 Light Rain OVC075 54 50 87% 29.59 1002.1 0.02
12 22:56 S 6 10.00 Light Rain OVC075 55.9 50 81% 29.6 1002.5 0.01
12 21:56 Calm 10.00 Overcast OVC080 57 53.1 69.1 57 87% 29.59 1002.2 0.01 0.04
12 20:56 S 5 10.00 Light Rain BKN065 OVC080 59 54 83% 29.6 1002.5
12 19:56 SE 6 10.00 Overcast FEW050 OVC070 59 55 87% 29.59 1002.1 0.03
12 18:56 SE 9 G 21 9.00 Light Rain OVC055 61 50 67% 29.61 1003.1
12 17:56 S 6 10.00 Fair CLR 68 52 57% 29.59 1002.1
12 16:56 S 5 10.00 Overcast SCT065 BKN080 OVC110 69.1 52 55% 29.6 1002.6
12 15:56 NE 7 10.00 Mostly Cloudy FEW047 SCT065 BKN085 66.9 52 68 61 59% 29.62 1003.3
12 14:56 NE 12 10.00 Light Rain FEW039 SCT055 BKN075 66 54 65% 29.65 1004.3
12 13:56 NE 9 G 17 10.00 Fair CLR 66.9 53.1 61% 29.68 1005.4
12 12:56 E 12 G 16 10.00 Mostly Cloudy BKN090 66 52 61% 29.72 1006.5
12 11:56 NE 9 10.00 Fair CLR 64 53.1 68% 29.74 1007.4
12 10:56 E 8 10.00 Overcast OVC095 64 52 65% 29.77 1008.3
12 09:56 Vrbl 3 10.00 Fair CLR 62.1 52 62.1 48.9 70% 29.79 1009.0
Date Time (akdt) Wind (mph) Vis. (mi.) Weather Sky Cond. Air Dwpt Max. Min. Relative Humidity Wind Chill (°F) Heat Index (°F) altimeter (in) sea level (mb) 1 hr 3 hr 6 hr
6 hour
Temperature (ºF) Pressure Precipitation (in)